Regional Weather Roundup
Issued by NWS

Home | Current Version | Previous Version | Text Only | Print | Product List | Glossary Off
Versions: 1 2 3 4 5 6 7 8 9 10 11 12 13 14 15 16 17 18 19 20 21 22 23 24 25 26 27 28 29 30 31 32 33 34 35 36 37 38 39 40 41 42 43 44 45 46 47 48 49 50

000
ASUS45 KPSR 220800
RWRAZ

ARIZONA HOURLY REGIONAL WEATHER ROUNDUP
NATIONAL WEATHER SERVICE PHOENIX AZ
100 AM MST FRI MAY 22 2015

NOTE: FAIR INDICATES FEW OR NO CLOUDS BELOW 12,000 FEET WITH NO
SIGNIFICANT WEATHER AND/OR OBSTRUCTIONS TO VISIBILITY.

AZZ001>003-036-220900-
NORTHWEST ARIZONA

CITY           SKY/WX    TMP DP  RH WIND       PRES   REMARKS
KINGMAN        PTCLDY    55  25  31 SE8       29.88R
$$

AZZ004>008-015-016-018-220900-
NORTH CENTRAL ARIZONA

CITY           SKY/WX    TMP DP  RH WIND       PRES   REMARKS
GRAND CANYON   CLEAR     32  29  88 E3        30.02S
WILLIAMS       CLEAR     45  23  42 S6        30.08S
PRESCOTT       PTCLDY    52  29  41 SW7       29.98R
FLAGSTAFF      NOT AVBL
PAYSON         CLEAR     50  28  43 CALM      30.03R
$$

AZZ009>014-017-220900-
NORTHEAST ARIZONA

CITY           SKY/WX    TMP DP  RH WIND       PRES   REMARKS
WINSLOW        NOT AVBL
SAINT JOHNS    CLEAR     50  24  36 S6        30.02F
WINDOW ROCK    CLEAR     39  30  70 CALM      30.06S
$$

AZZ023-220900-
GREATER PHOENIX AREA

CITY           SKY/WX    TMP DP  RH WIND       PRES   REMARKS
PHOENIX        MOCLDY    73  36  25 CALM      29.85R
LUKE AFB       MOCLDY    71  44  38 SW13      29.84S
DEER VALLEY    MOCLDY    70  43  37 SW15      29.86R
SCOTTSDALE     PTCLDY    69  32  25 E5        29.88R
$$

AZZ027-028-220900-
SOUTHWEST MARICOPA COUNTY AND PINAL COUNTY

CITY           SKY/WX    TMP DP  RH WIND       PRES   REMARKS
CASA GRANDE    CLOUDY    68  39  34 S7        29.87S
GILA BEND      FAIR      70  39  31 SW6       29.85S HAZE
$$

AZZ503-504-507>509-220900-
SOUTHEAST ARIZONA

CITY           SKY/WX    TMP DP  RH WIND       PRES   REMARKS
TUCSON         CLEAR     66  28  24 SW5       29.96S
DAVIS-MONTHAN  PTCLDY    64  28  26 SE7       29.95R
NOGALES        CLEAR     58  22  24 CALM      30.00S
SIERRA VISTA   CLEAR     62  21  20 S18       30.01F
SAFFORD        CLEAR     61  32  33 N7        29.92F
$$

AZZ020-021-025-026-031-220900-
SOUTHWEST ARIZONA

CITY           SKY/WX    TMP DP  RH WIND       PRES   REMARKS
YUMA           CLOUDY    65  39  38 N6        29.86R
$$

CAZ031-033-041-043-047-048-061-220900-
SOUTHERN CALIFORNIA

CITY           SKY/WX    TMP DP  RH WIND       PRES   REMARKS
DOWNTOWN L.A.  MOCLDY    60  51  72 CALM      29.97F
L.A. AIRPORT   MOCLDY    58  53  84 W16       29.99S
SAN DIEGO      CLOUDY    62  49  62 W12       30.03S
BURBANK        CLOUDY    59  47  64 W5        29.98S
ONTARIO        MOCLDY    57  43  59 W10       29.98S
RIVERSIDE      CLOUDY    58  46  64 W10       29.98S
PALM SPRINGS   PTCLDY    68  41  37 N22G30    29.85R
EL CENTRO NAS  CLEAR     64  42  44 W29G37    29.88S
IMPERIAL       CLEAR     63  42  46 W26G39    29.85S
BLYTHE         PTCLDY    64  46  52 S10       29.82R
$$

NVZ020-UTZ003-220900-
SOUTHERN NEVADA-UTAH

CITY           SKY/WX    TMP DP  RH WIND       PRES   REMARKS
LAS VEGAS      NOT AVBL
SALT LAKE CITY CLOUDY    55  48  77 CALM      29.89F
$$

NMZ009-TXZ055-220900-
NEW MEXICO-WEST TEXAS

CITY           SKY/WX    TMP DP  RH WIND       PRES   REMARKS
ALBUQUERQUE    PTCLDY    50  42  74 E12       30.10F
EL PASO        CLEAR     56  51  84 SE6       30.03F
$$


........................KEY........................
SKY/WX - SKY CONDITION/WEATHER
TMP    - TEMPERATURE IN FAHRENHEIT
DP     - DEW POINT IN FAHRENHEIT
RH     - RELATIVE HUMIDITY IN PERCENT
WIND   - DIRECTION AND SPEED IN MILES PER HOUR (MPH)
VRB    - VARIABLE WIND DIRECTION
PRES   - MEAN SEA LEVEL PRESSURE IN INCHES OF MERCURY
         F - FALLING PRESSURE   R - RISING PRESSURE
         S - STEADY PRESSURE
VSB    - VISIBILITY IN MILES
HX     - HEAT INDEX IN FAHRENHEIT
WCI    - WIND CHILL INDEX IN FAHRENHEIT
TC     - TEMPERATURE IN CELSIUS WHICH IS ALSO KNOWN AS
         TEMPERATURE IN CENTIGRADE
AFB    - AIR FORCE BASE
         LUKE AFB IS LUKE AIR FORCE BASE
         DAVIS-MONTHAN IS DAVIS-MONTHAN AIR FORCE BASE
NAS    - NAVAL AIR STATION
         EL CENTRO NAS IS EL CENTRO NAVAL AIR STATION
N/A    - NOT AVAILABLE



USA.gov is the U.S. government's official web portal to all federal, state and local government web resources and services.